Weather History for Conroe, TX

Change the Weather History Date:

Friday, November 30, 2012

  Actual Average Record
Temperature  
Mean Temperature 63 °F -  
Max Temperature 75 °F 64 °F 80 °F (1998)
Min Temperature 51 °F 43 °F 30 °F (2001)
Degree Days  
Heating Degree Days 2    
Growing Degree Days 13 (Base 50)    
Moisture  
Dew Point 59 °F    
Average Humidity 86    
Maximum Humidity 100    
Minimum Humidity 65    
Precipitation  
Precipitation 0.00 in - - ()
Sea Level Pressure  
Sea Level Pressure 30.16 in    
Wind  
Wind Speed 4 mph (SE)    
Max Wind Speed 14 mph    
Max Gust Speed 18 mph    
Visibility 7 miles    
Events      
Averages and records for this station are not official NWS values.
T = Trace of Precipitation, MM = Missing Value Source: NWS Daily Summary

Daily Weather History Graph

Daily Weather History Graph

Search for Another Location

Airport:

Trip Planner

Search our weather history database for the weather conditions in past years. The results will help you decide how hot, cold, wet, or windy it might be!

Date:

Astronomy

Nov. 30, 2012 Rise Set
Actual Time 7:00 AM CST 5:20 PM CST
Civil Twilight 6:34 AM CST 5:46 PM CST
Nautical Twilight 6:04 AM CST 6:16 PM CST
Astronomical Twilight 5:35 AM CST 6:45 PM CST
Moon 7:15 PM CST (11/30) 8:33 AM CST (11/30)
Length of Visible Light 11h 12m
Length of Day
10h 20m
Waning Gibbous, 96% of the Moon is Illuminated
Nov 30
Waning Gibbous
Dec 6
Last Quarter
Dec 13
New
Dec 19
First Quarter
Dec 28
Full

Hourly Weather History & Observations

Time (CST) Temp. Dew Point Humidity Pressure Visibility Wind Dir Wind Speed Gust Speed Precip Events Conditions
12:53 AM 53.1 °F 52.0 °F 96% 30.20 in 4.0 mi Calm Calm - N/A   Overcast
1:10 AM 51.8 °F 51.8 °F 100% 30.20 in 2.5 mi Calm Calm - N/A   Overcast
1:23 AM 51.8 °F 51.8 °F 100% 30.19 in 3.0 mi Calm Calm - N/A   Overcast
1:41 AM 51.8 °F 51.8 °F 100% 30.19 in 2.5 mi Calm Calm - N/A   Overcast
1:53 AM 52.0 °F 52.0 °F 100% 30.18 in 2.5 mi Calm Calm - N/A   Overcast
2:53 AM 54.0 °F 54.0 °F 100% 30.18 in 2.5 mi Calm Calm - N/A   Overcast
3:05 AM 55.4 °F 53.6 °F 94% 30.18 in 3.0 mi Calm Calm - N/A   Overcast
3:33 AM 55.4 °F 55.4 °F 100% 30.18 in 2.5 mi Calm Calm - N/A   Overcast
3:53 AM 55.0 °F 55.0 °F 100% 30.17 in 2.5 mi ESE 3.5 mph - N/A   Overcast
4:35 AM 57.2 °F 55.4 °F 94% 30.17 in 3.0 mi ESE 4.6 mph - N/A   Overcast
4:53 AM 57.0 °F 57.0 °F 100% 30.16 in 4.0 mi ESE 3.5 mph - N/A   Overcast
5:32 AM 57.2 °F 57.2 °F 100% 30.17 in 2.5 mi Calm Calm - N/A   Overcast
5:42 AM 57.2 °F 57.2 °F 100% 30.17 in 3.0 mi Variable 3.5 mph - N/A   Overcast
5:53 AM 57.9 °F 57.0 °F 97% 30.17 in 3.0 mi Variable 3.5 mph - N/A   Overcast
6:24 AM 57.2 °F 57.2 °F 100% 30.17 in 2.5 mi Calm Calm - N/A   Overcast
6:39 AM 57.2 °F 57.2 °F 100% 30.18 in 3.0 mi Calm Calm - N/A   Overcast
6:53 AM 57.9 °F 57.9 °F 100% 30.18 in 2.5 mi Calm Calm - N/A   Overcast
7:17 AM 57.2 °F 57.2 °F 100% 30.19 in 1.2 mi SE 3.5 mph - N/A   Overcast
7:53 AM 59.0 °F 59.0 °F 100% 30.19 in 1.5 mi ESE 3.5 mph - N/A   Overcast
8:05 AM 59.0 °F 59.0 °F 100% 30.19 in 2.0 mi Variable 3.5 mph - N/A   Overcast
8:26 AM 60.8 °F 59.0 °F 94% 30.19 in 3.0 mi SE 4.6 mph - N/A   Overcast
8:53 AM 61.0 °F 60.1 °F 97% 30.20 in 5.0 mi Variable 3.5 mph - N/A   Mostly Cloudy
9:08 AM 62.6 °F 60.8 °F 94% 30.20 in 8.0 mi SE 5.8 mph - N/A   Scattered Clouds
9:53 AM 66.0 °F 60.1 °F 81% 30.20 in 10.0 mi SSE 5.8 mph - N/A   Overcast
10:53 AM 71.1 °F 61.0 °F 70% 30.20 in 10.0 mi SE 11.5 mph - N/A   Overcast
11:36 AM 73.4 °F 62.6 °F 69% 30.19 in 10.0 mi SE 9.2 mph - 0.00 in   Overcast
11:53 AM 73.9 °F 62.1 °F 66% 30.18 in 10.0 mi SSE 13.8 mph - 0.00 in   Mostly Cloudy
12:00 PM 73.4 °F 62.6 °F 69% 30.18 in 10.0 mi SSE 10.4 mph - N/A   Mostly Cloudy
12:42 PM 73.4 °F 62.6 °F 69% 30.15 in 10.0 mi SSE 12.7 mph - N/A   Overcast
12:53 PM 73.0 °F 62.1 °F 68% 30.14 in 10.0 mi SE 9.2 mph - N/A   Mostly Cloudy
1:06 PM 75.2 °F 62.6 °F 65% 30.13 in 10.0 mi SSE 11.5 mph - N/A   Scattered Clouds
1:46 PM 73.4 °F 62.6 °F 69% 30.11 in 10.0 mi SE 8.1 mph - N/A   Mostly Cloudy
1:53 PM 73.9 °F 62.1 °F 66% 30.11 in 10.0 mi SSE 11.5 mph - N/A   Scattered Clouds
2:53 PM 73.9 °F 62.1 °F 66% 30.10 in 10.0 mi Variable 4.6 mph - N/A   Mostly Cloudy
3:17 PM 73.4 °F 62.6 °F 69% 30.10 in 10.0 mi SE 10.4 mph - N/A   Mostly Cloudy
3:29 PM 73.4 °F 62.6 °F 69% 30.10 in 10.0 mi SSE 9.2 mph - N/A   Mostly Cloudy
3:53 PM 73.0 °F 62.1 °F 68% 30.10 in 10.0 mi SE 11.5 mph - N/A   Scattered Clouds
4:53 PM 71.1 °F 63.0 °F 75% 30.10 in 10.0 mi SE 11.5 mph - N/A   Overcast
5:01 PM 71.6 °F 62.6 °F 73% 30.11 in 10.0 mi SE 5.8 mph - N/A   Overcast
5:53 PM 69.1 °F 62.1 °F 78% 30.11 in 10.0 mi SE 12.7 mph 18.4 mph N/A   Overcast
6:53 PM 68.0 °F 62.1 °F 81% 30.12 in 10.0 mi SE 8.1 mph - N/A   Overcast
7:26 PM 66.2 °F 62.6 °F 88% 30.12 in 10.0 mi ESE 9.2 mph - N/A   Scattered Clouds
7:39 PM 68.0 °F 62.6 °F 83% 30.13 in 10.0 mi SE 5.8 mph - N/A   Mostly Cloudy
7:49 PM 68.0 °F 62.6 °F 83% 30.13 in 10.0 mi SE 6.9 mph - N/A   Overcast
7:53 PM 66.9 °F 63.0 °F 87% 30.12 in 10.0 mi SE 5.8 mph - N/A   Overcast
8:30 PM 66.2 °F 62.6 °F 88% 30.14 in 10.0 mi SE 5.8 mph - N/A   Overcast
8:53 PM 66.9 °F 63.0 °F 87% 30.13 in 10.0 mi SE 5.8 mph - N/A   Overcast
9:53 PM 66.9 °F 63.0 °F 87% 30.14 in 10.0 mi SE 5.8 mph - N/A   Overcast
10:53 PM 66.0 °F 62.1 °F 87% 30.14 in 10.0 mi SE 4.6 mph - N/A   Overcast
11:53 PM 64.9 °F 62.1 °F 90% 30.14 in 10.0 mi ESE 3.5 mph - N/A   Overcast